Regional Weather Roundup
Issued by NWS

Home | Current Version | Previous Version | Graphics & Text | Print | Product List | Glossary On
Versions: 1 2 3 4 5 6 7 8 9 10 11 12 13 14 15 16 17 18 19 20 21 22 23 24 25 26 27 28 29 30 31 32 33 34 35 36 37 38 39 40 41 42 43 44 45 46 47 48 49 50
766
ASUS43 KOAX 311010
RWRNE

WEATHER ROUNDUP FOR NEBRASKA
NATIONAL WEATHER SERVICE OMAHA NE
500 AM CDT WED AUG 31 2016

NOTES: SATELLITE DATA IS BEING USED TO AUGMENT CLOUD COVER ABOVE
       12000 FEET.
       "FAIR" INDICATES FEW OR NO CLOUDS BELOW 12,000 FEET WITH NO
       SIGNIFICANT WEATHER AND/OR OBSTRUCTIONS TO VISIBILITY.

  * THESE STATIONS DO NOT REPORT WEATHER SUCH AS RAIN...SNOW OR FOG.

NEZ001>004-019>022-054>056-311100-
NEBRASKA PANHANDLE

CITY           SKY/WX    TMP DP  RH WIND       PRES   REMARKS
SCOTTSBLUFF    CLEAR     57  55  93 E5        30.25S
ALLIANCE       FOG       53  52  96 SE8       30.25F VSB 1/4
CHADRON        CLEAR     58  54  86 CALM      30.21F
KIMBALL        FOG       56  56 100 CALM      30.30S VSB 1/4
SIDNEY         CLOUDY    62  62 100 S6        30.28F FOG
$$

NEZ057>060-069>072-079>082-311100-
SOUTHWEST NEBRASKA

CITY           SKY/WX    TMP DP  RH WIND       PRES   REMARKS
NORTH PLATTE   FOG       63  62  97 E3        30.23S VSB 1/4
IMPERIAL       TSTM      66  64  93 CALM      30.24S FOG
LEXINGTON      CLOUDY    66  64  96 CALM      30.23R FOG
MCCOOK         CLOUDY    65  63  93 NE5       30.21R
OGALLALA       CLOUDY    64  63  96 E3        30.25S FOG
$$

NEZ005>010-023>029-035>040-094-311100-
NORTH CENTRAL NEBRASKA

CITY           SKY/WX    TMP DP  RH WIND       PRES   REMARKS
VALENTINE      CLEAR     60  58  92 CALM      30.22S
AINSWORTH      CLEAR     60  60 100 SW3       30.22F
BROKEN BOW       N/A     63  63 100 MISG      30.23S
O`NEILL        FOG       60  59  96 CALM      30.22S VSB 1/2
ORD            FOG       63  61  93 N5        30.21S VSB 1/4
THEDFORD       PTCLDY    57  56  98 SE5       30.25F FOG
$$

NEZ041-046>049-061>064-073>077-083>087-311100-
SOUTH CENTRAL NEBRASKA

CITY           SKY/WX    TMP DP  RH WIND       PRES   REMARKS
GRAND ISLAND   FOG       66  65  96 NE3       30.20S VSB 1/4
AURORA         CLOUDY    67  67 100 CALM      30.20S FOG
HASTINGS       CLOUDY    68  66  93 NE6       30.21R FOG
HEBRON         CLOUDY    69  68  98 CALM      30.17S FOG
HOLDREGE       DRZL/FOG  66  65  96 CALM      30.21S VSB 1
KEARNEY *      CLOUDY    66  64  94 N5        30.21R VSB 1/4
YORK           CLOUDY    66  66 100 CALM      30.19S FOG
$$

NEZ011>018-030>034-042>045-311100-
NORTHEAST NEBRASKA

CITY           SKY/WX    TMP DP  RH WIND       PRES   REMARKS
NORFOLK        CLOUDY    64  63  96 CALM      30.20S FOG
ALBION         FOG       61  59  94 CALM      30.20F VSB 3/4
BLAIR          CLOUDY    69  67  94 NE6       30.18R
FREMONT        CLOUDY    69  68  96 NE5       30.18S
TEKAMAH        MOCLDY    66  64  93 N6        30.18S
WAYNE          FOG       65  65  98 CALM      30.21S VSB 1/4
$$

NEZ050>053-065>068-078-088>093-311100-
SOUTHEAST NEBRASKA

CITY           SKY/WX    TMP DP  RH WIND       PRES   REMARKS
LINCOLN        CLOUDY    70  68  93 N5        30.17S
OMAHA EPPLEY   CLOUDY    70  65  84 N3        30.17R
BEATRICE       LGT RAIN  69  67  95 N5        30.16R
FALLS CITY     CLOUDY    71  70  96 NE3       30.12S
NEBRASKA CITY  CLOUDY    70  70 100 NE5       30.15S FOG
PLATTSMOUTH    MOCLDY    70  69  96 NE6       30.16S
$$

NEZ044-045-051>053-067-311100-
OMAHA AREA

CITY           SKY/WX    TMP DP  RH WIND       PRES   REMARKS
OMAHA EPPLEY   CLOUDY    70  65  84 N3        30.17R
BLAIR          CLOUDY    69  67  94 NE6       30.18R
FREMONT        CLOUDY    69  68  96 NE5       30.18S
MILLARD        CLOUDY   N/A N/A N/A NE3       30.16S
OFFUTT AFB     CLOUDY    70  69  95 NE8       30.15S
PLATTSMOUTH    MOCLDY    70  69  96 NE6       30.16S
WAHOO          PTSUNNY   69  67  94 NE5       30.17S
$$




USA.gov is the U.S. government's official web portal to all federal, state and local government web resources and services.